Weather History for KLVK - November, 2011

Change the Weather History Date:

Friday, November 4, 2011

  Actual Average Record
Temperature  
Mean Temperature 49 °F 57 °F  
Max Temperature 59 °F 70 °F 87 °F (1967)
Min Temperature 39 °F 45 °F 28 °F (1935)
Degree Days  
Heating Degree Days 16 8  
Month to date heating degree days 34 29  
Since 1 July heating degree days 113 157  
Cooling Degree Days 0 0  
Month to date cooling degree days 0 0  
Year to date cooling degree days 792 829  
Moisture  
Dew Point 40 °F    
Average Humidity 67    
Maximum Humidity 93    
Minimum Humidity 40    
Precipitation  
Precipitation 0.16 in 0.07 in 0.56 in (1944)
Month to date precipitation 0.21 0.28  
Year to date precipitation 11.05 11.33  
Since 1 July precipitation 1.28 1.43  
Sea Level Pressure  
Sea Level Pressure 29.87 in    
Wind  
Wind Speed 4 mph (NW)    
Max Wind Speed 15 mph    
Max Gust Speed 20 mph    
Visibility 9 miles    
Events Rain    
T = Trace of Precipitation, MM = Missing Value Source: NWS Daily Summary

Daily Weather History Graph

Daily Weather History Graph

Search for Another Location

Airport or City:

Trip Planner

Search our weather history database for the weather conditions in past years. The results will help you decide how hot, cold, wet, or windy it might be!

Date:

Astronomy

Nov. 04, 2011 Rise Set
Actual Time 7:35 AM PDT 6:05 PM PDT
Civil Twilight 7:08 AM PDT 6:33 PM PDT
Nautical Twilight 6:37 AM PDT 7:04 PM PDT
Astronomical Twilight 6:06 AM PDT 7:34 PM PDT
Moon 2:54 PM PDT (11/4) 1:58 AM PDT (11/4)
Length of Visible Light 11h 24m
Length of Day
10h 30m
Waxing Gibbous, 70% of the Moon is Illuminated
Nov 4
Waxing Gibbous
Nov 10
Full
Nov 18
Last Quarter
Nov 24
New
Dec 2
First Quarter

Hourly Weather History & Observations

Time (PDT) Temp. Windchill Dew Point Humidity Pressure Visibility Wind Dir Wind Speed Gust Speed Precip Events Conditions
12:23 AM 48.2 °F - 42.8 °F 82% 29.82 in 5.0 mi NNW 6.9 mph 18.4 mph 0.06 in Rain Light Rain
1:02 AM 48.2 °F - 42.8 °F 82% 29.83 in 10.0 mi Calm Calm - N/A   Mostly Cloudy
1:53 AM 48.0 °F - 44.1 °F 86% 29.83 in 4.0 mi SSW 5.8 mph - 0.02 in Rain Light Rain
2:53 AM 48.0 °F - 44.1 °F 86% 29.83 in 5.0 mi NNW 5.8 mph - 0.02 in Rain Rain
3:53 AM 46.0 °F 43.1 °F 41.0 °F 83% 29.83 in 9.0 mi East 5.8 mph - 0.11 in Rain Light Rain
4:53 AM 45.0 °F - 42.1 °F 90% 29.82 in 10.0 mi Calm Calm - 0.01 in   Overcast
5:53 AM 45.0 °F - 42.1 °F 90% 29.82 in 10.0 mi Calm Calm - N/A   Partly Cloudy
6:53 AM 41.0 °F 39.0 °F 39.0 °F 93% 29.83 in 10.0 mi East 3.5 mph - N/A   Clear
7:53 AM 39.9 °F 37.8 °F 37.9 °F 93% 29.85 in 10.0 mi East 3.5 mph - N/A   Scattered Clouds
8:53 AM 44.1 °F - 41.0 °F 89% 29.87 in 10.0 mi Calm Calm - N/A   Clear
9:40 AM 46.4 °F - 42.8 °F 87% 29.88 in 10.0 mi Calm Calm - N/A   Partly Cloudy
9:53 AM 46.9 °F - 44.1 °F 90% 29.88 in 10.0 mi Calm Calm - N/A   Scattered Clouds
10:53 AM 51.1 °F - 43.0 °F 74% 29.89 in 10.0 mi WSW 5.8 mph - N/A   Mostly Cloudy
11:00 AM 51.8 °F - 42.8 °F 71% 29.89 in 10.0 mi NW 8.1 mph - N/A   Mostly Cloudy
11:02 AM 51.8 °F - 42.8 °F 71% 29.89 in 10.0 mi NW 8.1 mph - N/A   Mostly Cloudy
11:53 AM 54.0 °F - 39.9 °F 59% 29.90 in 10.0 mi West 9.2 mph - N/A   Scattered Clouds
12:53 PM 55.9 °F - 37.9 °F 51% 29.88 in 10.0 mi NW 4.6 mph - N/A   Mostly Cloudy
1:53 PM 54.0 °F - 36.0 °F 51% 29.87 in 10.0 mi Calm Calm - N/A   Scattered Clouds
2:53 PM 57.0 °F - 36.0 °F 45% 29.86 in 10.0 mi North 11.5 mph - N/A   Mostly Cloudy
3:53 PM 57.9 °F - 34.0 °F 41% 29.86 in 10.0 mi NNW 5.8 mph - N/A   Scattered Clouds
4:53 PM 57.0 °F - 33.1 °F 40% 29.86 in 10.0 mi North 4.6 mph - N/A   Scattered Clouds
5:53 PM 55.0 °F - 35.1 °F 47% 29.88 in 10.0 mi WNW 9.2 mph - N/A   Partly Cloudy
6:53 PM 51.1 °F - 39.9 °F 66% 29.90 in 10.0 mi West 10.4 mph - N/A   Clear
7:53 PM 48.0 °F - 39.0 °F 71% 29.92 in 10.0 mi WNW 3.5 mph - N/A   Clear
8:53 PM 46.9 °F - 39.9 °F 77% 29.92 in 10.0 mi South 4.6 mph - N/A   Clear
9:53 PM 46.0 °F - 39.9 °F 79% 29.92 in 10.0 mi Calm Calm - N/A   Clear
10:53 PM 41.0 °F - 37.0 °F 86% 29.93 in 10.0 mi Calm Calm - N/A   Clear